Regional Weather Roundup
Issued by NWS Newport/Morehead, NC

Current Version | Previous Version | Text Only | Print | Product List | Glossary Off
Versions: 1 2 3 4 5 6 7 8 9 10 11 12 13 14 15 16 17 18 19 20 21 22 23 24 25 26 27 28 29 30 31 32 33 34 35 36 37 38 39 40 41 42 43 44 45 46 47 48 49 50
000 ASUS42 KMHX 220913 RWRMHX WEATHER ROUNDUP FOR EASTERN NORTH CAROLINA NATIONAL WEATHER SERVICE NEWPORT/MOREHEAD CITY NC 500 AM EDT FRI SEP 22 2017 NOTE: "FAIR" INDICATES FEW OR NO CLOUDS BELOW 12,000 FEET WITH NO SIGNIFICANT WEATHER AND/OR OBSTRUCTIONS TO VISIBILITY NCZ015>017-031-032-045>047-102-103-221000- NORTH COAST CITY SKY/WX TMP DP RH WIND PRES REMARKS EDENTON CLEAR 68 66 92 CALM 30.03F ELIZABETH CITY CLEAR 66 65 96 CALM 30.02S KITTY HAWK SUNNY 67 64 93 CALM 30.00S MANTEO CLEAR 64 63 97 CALM 30.02S $$ NCZ045>047-081-094-103-104-221000- CENTRAL COAST CITY SKY/WX TMP DP RH WIND PRES REMARKS FRISCO CLEAR 67 66 97 CALM 30.01F $$ NCZ095-097-098-100-101-221000- SOUTHERN COAST CITY SKY/WX TMP DP RH WIND PRES REMARKS BEAUFORT PTCLDY 69 69 100 CALM 30.02R CEDAR ISLAND NOT AVBL JACKSONVILLE CLEAR 68 67 96 CALM 30.02S PINEY ISLAND N/A N/A N/A N/A E5 30.02S WILMINGTON CLEAR 67 66 97 CALM 30.03R $$ NCZ011>013-027>030-043-044-078>080-089-090>093-098-221000- COASTAL PLAIN CITY SKY/WX TMP DP RH WIND PRES REMARKS AHOSKIE CLEAR 63 63 100 CALM 30.04R FOG CLINTON CLEAR 67 67 100 CALM 30.04S ELIZABETHTOWN NOT AVBL GOLDSBORO FOG 66 66 100 CALM 30.02R VSB 3/4 GREENVILLE CLEAR 66 66 100 CALM 30.05S FOG HAVELOCK CLEAR 70 69 97 N3 30.04R KENANSVILLE CLEAR 63 63 100 CALM 30.04S FOG KINSTON PTCLDY 64 64 100 CALM 30.04S FOG NEW BERN FOG 66 66 100 CALM 30.04S VSB 3/4 RICHLANDS CLEAR 64 64 100 CALM 30.04S FOG ROCKY MOUNT FOG 64 64 100 CALM 30.04R VSB 1/4 WASHINGTON FOG 67 66 98 CALM 30.04R VSB 3/4 WHITEVILLE CLEAR 65 64 97 CALM 30.03S FOG $$ AMZ130-135-150-152-154-156-158-170-250-252-270-ANZ085-086-088-633-658-670-221000- MARINE OBSERVATIONS STATION/POSITION TIME TEMP WIND PRES WAVE SWELL AIR SEA DIR/SP/G HT/PER HT/PER (UTC) (F) (DEG/KT/KT) (MB) (FT/S) (FT/S) CHESAPEAKE LIGHT NOT AVBL 64 E VA BEACH 0850 69 69 290/ 4/ 6 1016.2 9/11 10/11 DUCK 0848 72 75 240/ 5/ 5 1015.8 2 E DUCK 0900 75 N/A 4/11 3/11 OREGON INLET 0842 73 78 270/ 2/ 4 1016.1 13E OREGON INLT 0818 74 N/A 6/12 7/12 HATTERAS CG 0848 72 78 CALM 1016.3 DIAMOND BUOY 0850 74 76 330/ 4/ 6 1016.2 5/11 5/11 CAPE LOOKOUT 0900 76 60/ 10/ 10 1016.2 BEAUFORT LAB 0848 72 76 40/ 3/ 3 1015.9 30 SE NEW RVR IN 0808 79 70/ 10/ 12 1015.7 30 SE NEW RVR IN NOT AVBL 27 SE WRIGHTSVLE 0808 79 80 90/ 8/ 10 1015.9 5 SE WRIGHTSVLE 0808 74 78 30/ 12/ 16 1016.1 225 S CAPE HAT 0850 77 80 70/ 2/ 4 1015.5 5/11 5/11 41 SE CHARLESTON 0850 80 81 40/ 4/ 6 1015.2 3/10 3/10 $$

USA.gov is the U.S. government's official web portal to all federal, state and local government web resources and services.